sat.trackr.live / text

‹ back to catalog

STARLINK-32180

NORAD 60374 · 2024-138V

PAYLOAD ACTIVE UNKNOWN

§ Identity

Operator
Country
US
Launch date
2024-08-04
Launch site
AFWTR
Launch vehicle
Mass (kg)
RCS (m²)

Purposes: comms

External: N2YO · Heavens-Above · Gunter

§ Orbital elements

Epoch: 2026-09-21T19:26:23.617248Z

Period
94.01 min
Inclination
53.1588°
Eccentricity
0.0001212
Mean motion
15.31702874 rev/d
Perigee alt
469.9 km
Apogee alt
471.6 km
Semi-major
6,848.9 km
B*
1.6187e-5
RAAN
117.2845°
Arg perigee
84.4013°
Mean anomaly
275.7127°
Rev number
12,067

§ Raw data

STARLINK-321801 60374U 24138V   26264.80999557  .00000137  00000+0  16187-4 0  99972 60374  53.1588 117.2845 0001212  84.4013 275.7127 15.31702874120671

JSON: /api/v1/satellites/60374 · /tle

For live sub-satellite position, see the globe view (requires WebGL).

§ Visibility from observer

Set your observer location to see the next 7 days of passes ≥ 10°. The values pass through the URL so the page stays shareable.

No JS? Fill the form by hand. The geolocation button needs JavaScript.